La Grange, TX

11:28 AM CST on November 18, 2019 (GMT -0600)
La Grange

Weather History for K3T5 - August, 2019

Change the Weather History Date:

Monday, August 5, 2019

  Actual Average (KAUS) Record (KAUS)
Temperature  
Mean Temperature 86 °F -  
Max Temperature 98 °F 95 °F 105 °F (1951)
Min Temperature 75 °F 70 °F 64 °F (1973)
Cooling Degree Days 21    
Growing Degree Days 36 (Base 50)    
Moisture  
Dew Point 76 °F    
Average Humidity 75    
Maximum Humidity 100    
Minimum Humidity 43    
Precipitation  
Precipitation 0.00 in - - ()
Sea Level Pressure  
Sea Level Pressure 29.92 in    
Wind  
Wind Speed 0 mph (SSE)    
Max Wind Speed 5 mph    
Max Gust Speed -    
Visibility 10 miles    
Events      
Averages and records for this station are not official NWS values.
T = Trace of Precipitation, MM = Missing Value Source: NWS Daily Summary

Daily Weather History Graph

Daily Weather History Graph

Search for Another Location

Airport or City:

Astronomy

Aug. 05, 2019 Rise Set
Actual Time 6:49 AM CDT 8:17 PM CDT
Civil Twilight 6:23 AM CDT 8:43 PM CDT
Nautical Twilight 5:52 AM CDT 9:14 PM CDT
Astronomical Twilight 5:20 AM CDT 9:46 PM CDT
Moon 11:45 AM CDT (8/5) 11:54 PM CDT (8/5)
Length of Visible Light 14h 19m
Length of Day
13h 28m
Waxing Crescent, 28% of the Moon is Illuminated
Aug 5
Waxing Crescent
Aug 7
First Quarter
Aug 15
Full
Aug 23
Last Quarter
Aug 30
New

Hourly Weather History & Observations

Time (CDT) Temp. Heat Index Dew Point Humidity Pressure Visibility Wind Dir Wind Speed Gust Speed Precip Events Conditions
12:15 AM 79.3 °F - 78.1 °F 96% 29.93 in 10.0 mi Calm Calm - N/A   Clear
12:35 AM 79.0 °F - 78.1 °F 97% 29.93 in 10.0 mi Calm Calm - N/A   Clear
12:55 AM 78.8 °F - 78.1 °F 98% 29.93 in 10.0 mi Calm Calm - N/A   Clear
1:15 AM 78.8 °F - 78.6 °F 99% 29.93 in 10.0 mi Calm Calm - N/A   Clear
1:35 AM 78.6 °F - 78.6 °F 100% 29.94 in 10.0 mi Calm Calm - N/A   Clear
1:55 AM 78.3 °F - 78.3 °F 100% 29.94 in 10.0 mi Calm Calm - N/A   Clear
2:15 AM 78.1 °F - 78.1 °F 100% 29.94 in 10.0 mi Calm Calm - N/A   Clear
2:35 AM 77.5 °F - 77.5 °F 100% 29.94 in 10.0 mi Calm Calm - N/A   Clear
2:55 AM 77.4 °F - 77.4 °F 100% 29.94 in 10.0 mi Calm Calm - N/A   Clear
3:15 AM 77.2 °F - 77.2 °F 100% 29.94 in 10.0 mi Calm Calm - N/A   Clear
3:35 AM 77.0 °F - 77.0 °F 100% 29.93 in 10.0 mi Calm Calm - N/A   Clear
3:55 AM 77.0 °F - 77.0 °F 100% 29.93 in 10.0 mi Calm Calm - N/A   Clear
4:15 AM 76.6 °F - 76.6 °F 100% 29.93 in 10.0 mi Calm Calm - N/A   Clear
4:35 AM 76.5 °F - 76.5 °F 100% 29.93 in 7.0 mi Calm Calm - N/A   Clear
4:55 AM 76.3 °F - 76.3 °F 100% 29.93 in 5.0 mi Calm Calm - N/A   Clear
5:15 AM 76.1 °F - 76.1 °F 100% 29.93 in 7.0 mi Calm Calm - N/A   Clear
5:35 AM 76.1 °F - 76.1 °F 100% 29.93 in 4.0 mi Calm Calm - N/A   Clear
5:55 AM 76.1 °F - 76.1 °F 100% 29.93 in 5.0 mi Calm Calm - N/A   Clear
6:15 AM 75.9 °F - 75.9 °F 100% 29.93 in 5.0 mi Calm Calm - N/A   Clear
6:35 AM 76.1 °F - 76.1 °F 100% 29.94 in 7.0 mi Calm Calm - N/A   Clear
8:15 AM 78.3 °F - 78.3 °F 100% 29.96 in 10.0 mi Calm Calm - N/A   Scattered Clouds
8:35 AM 78.8 °F - 78.8 °F 100% 29.97 in 10.0 mi Calm Calm - N/A   Clear
8:55 AM 79.9 °F - 79.9 °F 100% 29.97 in 10.0 mi Calm Calm - N/A   Clear
9:15 AM 82.6 °F 94.7 °F 80.6 °F 94% 29.97 in 10.0 mi Calm Calm - N/A   Clear
9:35 AM 84.0 °F 97.3 °F 80.1 °F 88% 29.97 in 10.0 mi Calm Calm - N/A   Scattered Clouds
9:55 AM 85.6 °F 98.2 °F 78.6 °F 79% 29.97 in 10.0 mi Calm Calm - N/A   Mostly Cloudy
10:15 AM 86.5 °F 99.4 °F 78.3 °F 76% 29.97 in 10.0 mi Calm Calm - N/A   Mostly Cloudy
10:35 AM 87.6 °F 99.2 °F 76.8 °F 70% 29.97 in 10.0 mi Calm Calm - N/A   Mostly Cloudy
10:55 AM 87.1 °F 97.8 °F 76.1 °F 70% 29.96 in 10.0 mi Calm Calm - N/A   Scattered Clouds
11:15 AM 90.0 °F 99.6 °F 74.3 °F 60% 29.96 in 10.0 mi Calm Calm - N/A   Clear
11:35 AM 89.1 °F 99.1 °F 74.8 °F 63% 29.96 in 10.0 mi Calm Calm - N/A   Mostly Cloudy
11:55 AM 89.1 °F 98.0 °F 74.1 °F 61% 29.96 in 10.0 mi Calm Calm - N/A   Overcast
12:15 PM 90.0 °F 97.9 °F 72.7 °F 57% 29.96 in 10.0 mi Calm Calm - N/A   Scattered Clouds
12:35 PM 91.0 °F 99.8 °F 73.4 °F 56% 29.96 in 10.0 mi Calm Calm - N/A   Scattered Clouds
12:55 PM 92.3 °F 101.5 °F 73.4 °F 54% 29.95 in 10.0 mi Calm Calm - N/A   Scattered Clouds
1:15 PM 92.3 °F 101.5 °F 73.2 °F 54% 29.94 in 10.0 mi Calm Calm - N/A   Scattered Clouds
1:35 PM 93.6 °F 103.2 °F 73.4 °F 52% 29.93 in 10.0 mi Calm Calm - N/A   Scattered Clouds
1:55 PM 93.9 °F 102.7 °F 72.7 °F 50% 29.93 in 10.0 mi ENE 3.5 mph - N/A   Clear
2:15 PM 93.4 °F 102.1 °F 73.0 °F 51% 29.93 in 10.0 mi Calm Calm - N/A   Mostly Cloudy
2:35 PM 95.4 °F 104.7 °F 72.7 °F 48% 29.92 in 10.0 mi Calm Calm - N/A   Scattered Clouds
2:55 PM 95.4 °F 104.0 °F 72.5 °F 47% 29.91 in 10.0 mi Calm Calm - N/A   Clear
3:15 PM 97.2 °F 106.6 °F 72.9 °F 45% 29.90 in 10.0 mi Calm Calm - N/A   Scattered Clouds
3:35 PM 96.8 °F 105.8 °F 72.3 °F 45% 29.90 in 10.0 mi Calm Calm - N/A   Scattered Clouds
3:55 PM 97.2 °F 105.9 °F 71.8 °F 44% 29.89 in 10.0 mi Calm Calm - N/A   Clear
4:15 PM 97.7 °F 106.4 °F 71.8 °F 43% 29.88 in 10.0 mi Calm Calm - N/A   Clear
4:35 PM 97.3 °F 105.6 °F 71.4 °F 43% 29.88 in 10.0 mi Calm Calm - N/A   Clear
5:35 PM 94.8 °F 106.2 °F 74.7 °F 52% 29.88 in 10.0 mi SSE 3.5 mph - N/A   Mostly Cloudy
5:55 PM 95.2 °F 106.4 °F 74.7 °F 51% 29.87 in 10.0 mi SSE 4.6 mph - N/A   Scattered Clouds
6:15 PM 95.9 °F 107.4 °F 74.7 °F 50% 29.87 in 10.0 mi SSE 4.6 mph - N/A   Clear
6:35 PM 95.2 °F 106.4 °F 74.3 °F 51% 29.87 in 10.0 mi SSE 4.6 mph - N/A   Clear
6:55 PM 94.8 °F 105.5 °F 74.3 °F 51% 29.87 in 10.0 mi SSE 3.5 mph - N/A   Scattered Clouds
7:15 PM 93.2 °F 105.0 °F 75.2 °F 56% 29.87 in 10.0 mi SSE 3.5 mph - N/A   Scattered Clouds
7:35 PM 92.1 °F 102.4 °F 74.5 °F 56% 29.87 in 10.0 mi SSE 4.6 mph - N/A   Clear
7:55 PM 91.0 °F 101.0 °F 74.5 °F 58% 29.88 in 10.0 mi SSE 3.5 mph - N/A   Clear
8:15 PM 89.6 °F 99.8 °F 74.8 °F 62% 29.88 in 10.0 mi Calm Calm - N/A   Clear
8:35 PM 88.7 °F 98.2 °F 74.7 °F 63% 29.89 in 10.0 mi Calm Calm - N/A   Clear
8:55 PM 87.4 °F 96.7 °F 74.7 °F 66% 29.89 in 10.0 mi Calm Calm - N/A   Clear
9:15 PM 86.9 °F 96.4 °F 75.0 °F 68% 29.90 in 10.0 mi Calm Calm - N/A   Clear
9:35 PM 86.0 °F 95.1 °F 75.4 °F 70% 29.90 in 10.0 mi Calm Calm - N/A   Clear
9:55 PM 85.3 °F 94.6 °F 75.7 °F 73% 29.90 in 10.0 mi Calm Calm - N/A   Clear
10:15 PM 84.9 °F 94.5 °F 76.1 °F 75% 29.91 in 10.0 mi SSE 3.5 mph - N/A   Clear
10:35 PM 84.2 °F 93.4 °F 76.1 °F 77% 29.91 in 10.0 mi South 3.5 mph - N/A   Clear
10:55 PM 84.0 °F 92.9 °F 76.1 °F 77% 29.91 in 10.0 mi South 4.6 mph - N/A   Clear
11:15 PM 83.5 °F 92.2 °F 76.3 °F 79% 29.92 in 10.0 mi South 3.5 mph - N/A   Clear
11:35 PM 82.9 °F 91.2 °F 76.3 °F 80% 29.92 in 10.0 mi Calm Calm - N/A   Clear
11:55 PM 82.0 °F 89.7 °F 76.3 °F 83% 29.92 in 10.0 mi Calm Calm - N/A   Clear